Weather Roundup
Issued by NWS Chicago, IL

Home | Current Version | Previous Version | Graphics & Text | Print | Product List | Glossary On
Versions: 1 2 3 4 5 6 7 8 9 10 11 12 13 14 15 16 17 18 19 20 21 22 23 24 25 26 27 28 29 30 31 32 33 34 35 36 37 38 39 40 41 42 43 44 45 46 47 48 49 50
000
NZUS59 KLOT 290800
HRRLOT

CHICAGO AREA WEATHER ROUNDUP
NATIONAL WEATHER SERVICE CHICAGO/ROMEOVILLE IL
200 AM CST MON DEC 29 2014

NOTE: "FAIR" INDICATES FEW OR NO CLOUDS BELOW 12,000 FEET WITH NO
SIGNIFICANT WEATHER AND/OR OBSTRUCTIONS TO VISIBILITY.

* THESE STATIONS ARE NOT UNDER NWS QUALITY CONTROL. THEY ALSO MAY NOT
  REPORT WEATHER SUCH AS PRECIPITATION OR FOG.

ILZ005-006-012>014-019>023-290900-
NORTHEAST ILLINOIS

CITY           SKY/WX    TMP DP  RH WIND       PRES   REMARKS
OHARE          MOCLDY    27  19  72 N5        30.26R WCI  22
MIDWAY         MOCLDY    27  20  75 NW6       30.27R WCI  20
AURORA         MOCLDY    26  19  74 N3        30.27R
LANSING*       CLEAR     19  16  87 CALM      30.26S
WAUKEGAN       MOCLDY    26  17  68 NW5       30.27R WCI  20
DUPAGE AIRPORT CLOUDY    24  19  81 N6        30.25S WCI  17
WHEELING       MOCLDY    25  19  78 N3        30.29R
NORTHERLY IS     N/A     30  22  72 W5          N/A  WCI  25
$$

WIZ051-052-058>065-066-070>072-290900-
SOUTHEAST WISCONSIN

CITY           SKY/WX    TMP DP  RH WIND       PRES   REMARKS
MILWAUKEE      MOCLDY    26  19  74 N7        30.29R WCI  18
KENOSHA*       MOCLDY    27  20  75 N6        30.28R WCI  20
RACINE*        CLOUDY    26  19  74 NW5       30.30R WCI  20
$$

INZ001>003-010>013-019-020-290900-
NORTHWEST INDIANA

CITY           SKY/WX    TMP DP  RH WIND       PRES   REMARKS
GARY*          CLEAR     21  17  83 CALM      30.28R
MICHIGAN CITY* NOT AVBL
RENSSELAER*    NOT AVBL
$$

LMZ740>746-290900-
SOUTHERN LAKE MICHIGAN

STATION/POSITION TIME  SKY/WX   TEMP WIND        PRES    VSBY
                                AIR  DIR/SP/G
                 (UTC)          (F)  (DEG/KT/KT) (MB)    (MI)
HARRISON CRIB    0700            31  310/  8/ 10   N/A
BURNHAM HARBOR   0800            30  260/  3/  4   N/A
CALUMET HARBOR   0700            27  270/  3/  4 1023.6R
BURNS HARBOR     NOT AVBL
MICHIGAN CITY    0700            34  320/ 10/ 12   N/A
$$

ABBREVIATIONS USED IN REMARKS
   TC - TEMPERATURE IN CELSIUS
  WCI - WIND CHILL INDEX
   HX - HEAT INDEX
  VSB - VISIBILITY
$$



USA.gov is the U.S. government's official web portal to all federal, state and local government web resources and services.